Year,Month,Day,Hour,Minute,Value (Times are PST for temperature in C)
2015,06,13,10,14,17.30
2015,06,13,10,15,17.20
2015,06,13,10,16,17.20
2015,06,13,10,17,17.30
2015,06,13,10,18,17.20
2015,06,13,10,19,17.20
2015,06,13,10,20,17.30
2015,06,13,10,21,17.30
2015,06,13,10,22,17.30
2015,06,13,10,23,17.40
2015,06,13,10,24,17.50
2015,06,13,10,25,17.60
2015,06,13,10,26,17.70
2015,06,13,10,27,17.80
2015,06,13,10,28,17.90
2015,06,13,10,29,18.00
2015,06,13,10,30,18.00
2015,06,13,10,31,18.00
2015,06,13,10,32,18.10
2015,06,13,10,33,18.10
2015,06,13,10,34,18.10
2015,06,13,10,35,18.10
2015,06,13,10,36,18.20
2015,06,13,10,37,18.20
2015,06,13,10,38,18.30
2015,06,13,10,39,18.30
2015,06,13,10,40,18.30
2015,06,13,10,41,18.30
2015,06,13,10,42,18.30
2015,06,13,10,43,18.40
2015,06,13,10,44,18.40
2015,06,13,10,45,18.40
2015,06,13,10,46,18.30
2015,06,13,10,47,18.30
2015,06,13,10,48,18.30
2015,06,13,10,49,18.30
2015,06,13,10,50,18.30
2015,06,13,10,51,18.40
2015,06,13,10,52,18.50
2015,06,13,10,53,18.50
2015,06,13,10,54,18.40
2015,06,13,10,55,18.40
2015,06,13,10,56,18.40
2015,06,13,10,57,18.40
2015,06,13,10,58,18.40
2015,06,13,10,59,18.40
2015,06,13,11,00,18.30
2015,06,13,11,01,18.30
2015,06,13,11,02,18.40
2015,06,13,11,03,18.40
2015,06,13,11,04,18.30
2015,06,13,11,05,18.40
2015,06,13,11,06,18.50
2015,06,13,11,07,18.50
2015,06,13,11,08,18.50
2015,06,13,11,09,18.50
2015,06,13,11,10,18.60
2015,06,13,11,11,18.50
2015,06,13,11,12,18.60
2015,06,13,11,13,18.70
2015,06,13,11,14,18.70
2015,06,13,11,15,18.70
2015,06,13,11,16,18.70
2015,06,13,11,17,18.70
2015,06,13,11,18,18.70
2015,06,13,11,19,18.70
2015,06,13,11,20,18.70
2015,06,13,11,21,18.70
2015,06,13,11,22,18.80
2015,06,13,11,23,18.90
2015,06,13,11,24,19.00
2015,06,13,11,25,19.10
2015,06,13,11,26,19.00
2015,06,13,11,27,19.00
2015,06,13,11,28,19.10
2015,06,13,11,29,19.10
2015,06,13,11,30,18.90
2015,06,13,11,31,18.80
2015,06,13,11,32,18.80
2015,06,13,11,33,18.80
2015,06,13,11,34,18.80
2015,06,13,11,35,18.90
2015,06,13,11,36,19.00
2015,06,13,11,37,19.00
2015,06,13,11,38,19.10
2015,06,13,11,39,19.20
2015,06,13,11,40,19.20
2015,06,13,11,41,19.20
2015,06,13,11,42,19.30
2015,06,13,11,43,19.20
2015,06,13,11,44,19.20
2015,06,13,11,45,19.10
2015,06,13,11,46,19.10
2015,06,13,11,47,19.00
2015,06,13,11,48,19.00
2015,06,13,11,49,19.00
2015,06,13,11,50,19.00
2015,06,13,11,51,19.10
2015,06,13,11,52,19.30
2015,06,13,11,53,19.40
2015,06,13,11,54,19.60
2015,06,13,11,55,19.70
2015,06,13,11,56,19.80
2015,06,13,11,57,19.70
2015,06,13,11,58,19.70
2015,06,13,11,59,19.70
2015,06,13,12,00,19.60
2015,06,13,12,01,19.70
2015,06,13,12,02,19.70
2015,06,13,12,03,19.70
2015,06,13,12,04,19.70
2015,06,13,12,05,19.70
2015,06,13,12,06,19.60
2015,06,13,12,07,19.50
2015,06,13,12,08,19.40
2015,06,13,12,09,19.30
2015,06,13,12,10,19.30
2015,06,13,12,11,19.30
2015,06,13,12,12,19.30
2015,06,13,12,13,19.20
2015,06,13,12,14,19.20
2015,06,13,12,15,19.20
2015,06,13,12,16,19.20
2015,06,13,12,17,19.20
2015,06,13,12,18,19.30
2015,06,13,12,19,19.50
2015,06,13,12,20,19.60
2015,06,13,12,21,19.80
2015,06,13,12,22,20.10
2015,06,13,12,23,20.20
2015,06,13,12,24,20.30
2015,06,13,12,25,20.40
2015,06,13,12,26,20.40
2015,06,13,12,27,20.40
2015,06,13,12,28,20.30
2015,06,13,12,29,20.30
2015,06,13,12,30,20.30
2015,06,13,12,31,20.30
2015,06,13,12,32,20.20
2015,06,13,12,33,20.20
2015,06,13,12,34,20.20
2015,06,13,12,35,20.20
2015,06,13,12,36,20.10
2015,06,13,12,37,20.10
2015,06,13,12,38,20.10
2015,06,13,12,39,20.20
2015,06,13,12,40,20.10
2015,06,13,12,41,20.00
2015,06,13,12,42,20.00
2015,06,13,12,43,20.10
2015,06,13,12,44,20.20
2015,06,13,12,45,20.20
2015,06,13,12,46,20.20
2015,06,13,12,47,20.30
2015,06,13,12,48,20.30
2015,06,13,12,49,20.40
2015,06,13,12,50,20.50
2015,06,13,12,51,20.50
2015,06,13,12,52,20.50
2015,06,13,12,53,20.50
2015,06,13,12,54,20.60
2015,06,13,12,55,20.60
2015,06,13,12,56,20.60
2015,06,13,12,57,20.50
2015,06,13,12,58,20.50
2015,06,13,12,59,20.50
2015,06,13,13,00,20.40
2015,06,13,13,01,20.30
2015,06,13,13,02,20.20
2015,06,13,13,03,20.20
2015,06,13,13,04,20.20
2015,06,13,13,05,20.30
2015,06,13,13,06,20.50
2015,06,13,13,07,20.60
2015,06,13,13,08,20.80
2015,06,13,13,09,20.90
2015,06,13,13,10,21.00
2015,06,13,13,11,20.90
2015,06,13,13,12,20.90
2015,06,13,13,13,20.90
2015,06,13,13,14,20.80
2015,06,13,13,15,20.70
2015,06,13,13,16,20.70
2015,06,13,13,17,20.80
2015,06,13,13,18,20.90
2015,06,13,13,19,21.00
2015,06,13,13,20,21.10
2015,06,13,13,21,21.30
2015,06,13,13,22,21.40
2015,06,13,13,23,21.40
2015,06,13,13,24,21.40
2015,06,13,13,25,21.40
2015,06,13,13,26,21.40
2015,06,13,13,27,21.30
2015,06,13,13,28,21.20
2015,06,13,13,29,21.10
2015,06,13,13,30,21.10
2015,06,13,13,31,21.10
2015,06,13,13,32,21.20
2015,06,13,13,33,21.30
2015,06,13,13,34,21.40
2015,06,13,13,35,21.40
2015,06,13,13,36,21.40
2015,06,13,13,37,21.30
2015,06,13,13,38,21.30
2015,06,13,13,39,21.30
2015,06,13,13,40,21.30
2015,06,13,13,41,21.30
2015,06,13,13,42,21.30
2015,06,13,13,43,21.50
2015,06,13,13,44,21.50
2015,06,13,13,45,21.60
2015,06,13,13,46,21.60
2015,06,13,13,47,21.60
2015,06,13,13,48,21.80
2015,06,13,13,49,21.90
2015,06,13,13,50,21.90
2015,06,13,13,51,21.90
2015,06,13,13,52,21.90
2015,06,13,13,53,21.80
2015,06,13,13,54,21.80
2015,06,13,13,55,21.80
2015,06,13,13,56,21.80
2015,06,13,13,57,21.70
2015,06,13,13,58,21.70
2015,06,13,13,59,21.80
2015,06,13,14,00,21.80
2015,06,13,14,01,21.70
2015,06,13,14,02,21.80
2015,06,13,14,03,21.90
2015,06,13,14,04,22.00
2015,06,13,14,05,22.10
2015,06,13,14,06,22.20
2015,06,13,14,07,22.30
2015,06,13,14,08,22.40
2015,06,13,14,09,22.30
2015,06,13,14,10,22.20
2015,06,13,14,11,22.20
2015,06,13,14,12,22.30
2015,06,13,14,13,22.30
2015,06,13,14,14,22.20
2015,06,13,14,15,22.20
2015,06,13,14,16,22.20
2015,06,13,14,17,22.20
2015,06,13,14,18,22.20
2015,06,13,14,19,22.10
2015,06,13,14,20,22.00
2015,06,13,14,21,21.90
2015,06,13,14,22,21.80
2015,06,13,14,23,21.80
2015,06,13,14,24,21.90
2015,06,13,14,25,22.00
2015,06,13,14,26,22.20
2015,06,13,14,27,22.20
2015,06,13,14,28,22.30
2015,06,13,14,29,22.30
2015,06,13,14,30,22.30
2015,06,13,14,31,22.30
2015,06,13,14,32,22.20
2015,06,13,14,33,22.10
2015,06,13,14,34,22.10
2015,06,13,14,35,22.00
2015,06,13,14,36,22.10
2015,06,13,14,37,22.20
2015,06,13,14,38,22.30
2015,06,13,14,39,22.30
2015,06,13,14,40,22.20
2015,06,13,14,41,22.20
2015,06,13,14,42,22.10
2015,06,13,14,43,22.00
2015,06,13,14,44,21.90
2015,06,13,14,45,21.80
2015,06,13,14,46,21.80
2015,06,13,14,47,21.80
2015,06,13,14,48,21.70
2015,06,13,14,49,21.70
2015,06,13,14,50,21.70
2015,06,13,14,51,21.60
2015,06,13,14,52,21.60
2015,06,13,14,53,21.60
2015,06,13,14,54,21.70
2015,06,13,14,55,21.90
2015,06,13,14,56,22.10
2015,06,13,14,57,22.20
2015,06,13,14,58,22.40
2015,06,13,14,59,22.60
2015,06,13,15,00,22.60
2015,06,13,15,01,22.60
2015,06,13,15,02,22.70
2015,06,13,15,03,22.70
2015,06,13,15,04,22.70
2015,06,13,15,05,22.80
2015,06,13,15,06,22.90
2015,06,13,15,07,22.90
2015,06,13,15,08,22.90
2015,06,13,15,09,22.90
2015,06,13,15,10,22.80
2015,06,13,15,11,22.60
2015,06,13,15,12,22.50
2015,06,13,15,13,22.50
2015,06,13,15,14,22.50
2015,06,13,15,15,22.40
2015,06,13,15,16,22.30
2015,06,13,15,17,22.30
2015,06,13,15,18,22.20
2015,06,13,15,19,22.10
2015,06,13,15,20,22.00
2015,06,13,15,21,22.00
2015,06,13,15,22,22.00
2015,06,13,15,23,22.20
2015,06,13,15,24,22.40
2015,06,13,15,25,22.60
2015,06,13,15,26,22.60
2015,06,13,15,27,22.70
2015,06,13,15,28,22.80
2015,06,13,15,29,22.80
2015,06,13,15,30,22.80
2015,06,13,15,31,22.60
2015,06,13,15,32,22.50
2015,06,13,15,33,22.40
2015,06,13,15,34,22.30
2015,06,13,15,35,22.30
2015,06,13,15,36,22.40
2015,06,13,15,37,22.50
2015,06,13,15,38,22.50
2015,06,13,15,39,22.50
2015,06,13,15,40,22.60
2015,06,13,15,41,22.60
2015,06,13,15,42,22.60
2015,06,13,15,43,22.70
2015,06,13,15,44,22.60
2015,06,13,15,45,22.60
2015,06,13,15,46,22.60
2015,06,13,15,47,22.60
2015,06,13,15,48,22.60
2015,06,13,15,49,22.60
2015,06,13,15,50,22.50
2015,06,13,15,51,22.40
2015,06,13,15,52,22.40
2015,06,13,15,53,22.50
2015,06,13,15,54,22.60
2015,06,13,15,55,22.60
2015,06,13,15,56,22.60
2015,06,13,15,57,22.60
2015,06,13,15,58,22.60
2015,06,13,15,59,22.70
2015,06,13,16,00,22.90
2015,06,13,16,01,22.90
2015,06,13,16,02,22.80
2015,06,13,16,03,22.80
2015,06,13,16,04,22.70
2015,06,13,16,05,22.50
2015,06,13,16,06,22.40
2015,06,13,16,07,22.30
2015,06,13,16,08,22.40
2015,06,13,16,09,22.40
2015,06,13,16,10,22.50
2015,06,13,16,11,22.40
2015,06,13,16,12,22.30
2015,06,13,16,13,22.20
2015,06,13,16,14,22.20
2015,06,13,16,15,22.30
2015,06,13,16,16,22.40
2015,06,13,16,17,22.40
2015,06,13,16,18,22.30
2015,06,13,16,19,22.40
2015,06,13,16,20,22.40
2015,06,13,16,21,22.40
2015,06,13,16,22,22.40
2015,06,13,16,23,22.50
2015,06,13,16,24,22.50
2015,06,13,16,25,22.50
2015,06,13,16,26,22.40
2015,06,13,16,27,22.40
2015,06,13,16,28,22.40
2015,06,13,16,29,22.40
2015,06,13,16,30,22.30
2015,06,13,16,31,22.20
2015,06,13,16,32,22.10
2015,06,13,16,33,22.00
2015,06,13,16,34,22.00
2015,06,13,16,35,22.10
2015,06,13,16,36,22.20
2015,06,13,16,37,22.40
2015,06,13,16,38,22.50
2015,06,13,16,39,22.60
2015,06,13,16,40,22.60
2015,06,13,16,41,22.60
2015,06,13,16,42,22.50
2015,06,13,16,43,22.40
2015,06,13,16,44,22.40
2015,06,13,16,45,22.40
2015,06,13,16,46,22.40
2015,06,13,16,47,22.30
2015,06,13,16,48,22.30
2015,06,13,16,49,22.20
2015,06,13,16,50,22.10
2015,06,13,16,51,22.10
2015,06,13,16,52,22.10
2015,06,13,16,53,22.10
2015,06,13,16,54,22.20
2015,06,13,16,55,22.20
2015,06,13,16,56,22.30
2015,06,13,16,57,22.30
2015,06,13,16,58,22.30
2015,06,13,16,59,22.30
2015,06,13,17,00,22.30
2015,06,13,17,01,22.30
2015,06,13,17,02,22.30
2015,06,13,17,03,22.30
2015,06,13,17,04,22.20
2015,06,13,17,05,22.20
2015,06,13,17,06,22.20
2015,06,13,17,07,22.20
2015,06,13,17,08,22.20
2015,06,13,17,09,22.10
2015,06,13,17,10,22.10
2015,06,13,17,11,22.10
2015,06,13,17,12,22.20
2015,06,13,17,13,22.20
2015,06,13,17,14,22.30
2015,06,13,17,15,22.30
2015,06,13,17,16,22.30
2015,06,13,17,17,22.40
2015,06,13,17,18,22.40
2015,06,13,17,19,22.40
2015,06,13,17,20,22.40
2015,06,13,17,21,22.30
2015,06,13,17,22,22.30
2015,06,13,17,23,22.30
2015,06,13,17,24,22.30
2015,06,13,17,25,22.30
2015,06,13,17,26,22.30
2015,06,13,17,27,22.30
2015,06,13,17,28,22.30
2015,06,13,17,29,22.30
2015,06,13,17,30,22.20
2015,06,13,17,31,22.10
2015,06,13,17,32,22.00
2015,06,13,17,33,21.80
2015,06,13,17,34,21.70
2015,06,13,17,35,21.70
2015,06,13,17,36,21.70
2015,06,13,17,37,21.70
2015,06,13,17,38,21.70
2015,06,13,17,39,21.80
2015,06,13,17,40,21.80
2015,06,13,17,41,21.80
2015,06,13,17,42,21.80
2015,06,13,17,43,21.80
2015,06,13,17,44,21.80
2015,06,13,17,45,21.70
2015,06,13,17,46,21.70
2015,06,13,17,47,21.70
2015,06,13,17,48,21.60
2015,06,13,17,49,21.50
2015,06,13,17,50,21.50
2015,06,13,17,51,21.40
2015,06,13,17,52,21.40
2015,06,13,17,53,21.50
2015,06,13,17,54,21.60
2015,06,13,17,55,21.70
2015,06,13,17,56,21.70
2015,06,13,17,57,21.60
2015,06,13,17,58,21.60
2015,06,13,17,59,21.60
2015,06,13,18,00,21.60
2015,06,13,18,01,21.60
2015,06,13,18,02,21.60
2015,06,13,18,03,21.60
2015,06,13,18,04,21.60
2015,06,13,18,05,21.60
2015,06,13,18,06,21.60
2015,06,13,18,07,21.60
2015,06,13,18,08,21.60
2015,06,13,18,09,21.60
2015,06,13,18,10,21.60
2015,06,13,18,11,21.60
2015,06,13,18,12,21.60
2015,06,13,18,13,21.60
2015,06,13,18,14,21.50
2015,06,13,18,15,21.40
2015,06,13,18,16,21.40
2015,06,13,18,17,21.40
2015,06,13,18,18,21.30
2015,06,13,18,19,21.30
2015,06,13,18,20,21.20
2015,06,13,18,21,21.30
2015,06,13,18,22,21.40
2015,06,13,18,23,21.50
2015,06,13,18,24,21.50
2015,06,13,18,25,21.50
2015,06,13,18,26,21.60
2015,06,13,18,27,21.60
2015,06,13,18,28,21.60
2015,06,13,18,29,21.60
2015,06,13,18,30,21.60
2015,06,13,18,31,21.60
2015,06,13,18,32,21.50
2015,06,13,18,33,21.50
2015,06,13,18,34,21.50
2015,06,13,18,35,21.50
2015,06,13,18,36,21.60
2015,06,13,18,37,21.60
2015,06,13,18,38,21.70
2015,06,13,18,39,21.70
2015,06,13,18,40,21.70
2015,06,13,18,41,21.60
2015,06,13,18,42,21.50
2015,06,13,18,43,21.40
2015,06,13,18,44,21.40
2015,06,13,18,45,21.30
2015,06,13,18,46,21.30
2015,06,13,18,47,21.20
2015,06,13,18,48,21.20
2015,06,13,18,49,21.20
2015,06,13,18,50,21.10
2015,06,13,18,51,21.10
2015,06,13,18,52,21.10
2015,06,13,18,53,21.00
2015,06,13,18,54,21.00
2015,06,13,18,55,20.90
2015,06,13,18,56,20.90
2015,06,13,18,57,20.90
2015,06,13,18,58,20.90
2015,06,13,18,59,20.90
2015,06,13,19,00,20.90
2015,06,13,19,01,20.90
2015,06,13,19,02,20.90
2015,06,13,19,03,20.90
2015,06,13,19,04,20.90
2015,06,13,19,05,20.90
2015,06,13,19,06,20.90
